FENGYUN 1C DEB, 31991

Orbit data source: Space-Track

FENGYUN 1C DEB, 31991 is space debris in SSO originally from a launch on Mon, 10 May 1999 UTC launched from the Taiyaun Space Center, China (TSC). Fengyun 1C debris stems from the Chinese weather satellite Fengyun-1C, which was intentionally destroyed by a Chinese anti-satellite missile in 2007. This event dramatically increased the amount of space debris, with thousands of trackable fragments posing hazards to satellites and human spaceflight. The Fengyun 1C debris cloud has become a focal point in discussions about space sustainability and the need for international regulations to prevent the creation of new debris.

Loading next visibility...
Identifier
31991, 1999-025CPU
Orbit
SSO
Country
Flag of CNCN / PRC
Related business
Manufacturer
Unknown
Mission
Spacecraft
Bus & Motor
Unknown
Mass
Unknown
Launch date (UTC)
1999-05-10 (27 years ago)
Launch vehicle
Unknown
Launch site
Taiyaun Space Center, China (TSC)
Object type
Payload
Rocket body
Debris
Shape & HBR
Unknown shape, 0.1 m
Radar Cross Section
Small (<0.1 m²)

Expand to show TLE details & history
Last TLE update: 3 days ago

TLE from 3 days ago
0 FENGYUN 1C DEB
1 31991U 99025CPU 26166.37020190  .00000075  00000-0  13665-3 0  9997
2 31991 100.4789  13.9202 0243783 318.5020  39.7831 13.61334523645992
Epoch: 2026-06-15T08:53Z
TLE epoch observation values (Epoch: 2026-06-15T08:53:05.444Z)
Latitude
-0.00001°
Longitude
-23.01004°
Altitude
896.652 km
Speed
7.472 km/s
True Right ascension
00h 55m 40s
True Declination
0° 00' 00"
Sunlit
Object was in daylight at epoch
Visualization orbit readout
Latitude
Unknown
Longitude
Unknown
Altitude
Unknown
Speed
Unknown
Apparent Right ascension
Unknown
Apparent Declination
Unknown
Sunlit
N/A
Visualization observer readout
Local Sidereal Time
20:50:40
Azimuth
Unknown
Elevation
Unknown
Doppler factor
Unknown
Orbital elements
Apogee altitude
1,208.725 km
Perigee altitude
847.619 km
Semi-major axis
7,406.309 km
Eccentricity
0.02438
Inclination
100.4789°
RAAN
13.9202°
Arg. of periapsis
318.502°
True anomaly
41.61315°
Mean anomaly
39.7831°
Eccentric anomaly
40.69382°
Mean motion
3.40518 °/min
Orbital period
105.72 mins
BSTAR
0.00013665
Loading maneuver chart data...
Computing Atmospheric mass density...

Documentation

Showing up to 5 results
|